Regional Weather Roundup
Issued by NWS

Home | Current Version | Previous Version | Text Only | Print | Product List | Glossary Off
Versions: 1 2 3 4 5 6 7 8 9 10 11 12 13 14 15 16 17 18 19 20 21 22 23 24 25 26 27 28 29 30 31 32 33 34 35 36 37 38 39 40 41 42 43 44 45 46 47 48 49 50

000
ASUS45 KBOI 010610
RWRID

IDAHO REGIONAL WEATHER ROUNDUP
NATIONAL WEATHER SERVICE BOISE ID
1200 AM MDT TUE SEP 01 2015

NOTE: "FAIR" INDICATES FEW OR NO CLOUDS BELOW 12000 FEET
WITH NO SIGNIFICANT WEATHER AND/OR OBSTRUCTIONS TO VISIBILITY

IDZ012-014-010700-
SOUTHWEST IDAHO


CITY           SKY/WX    TMP DP  RH WIND       PRES   REMARKS
BOISE          CLEAR     66  42  41 CALM      29.90S
CALDWELL       CLEAR     61  41  48 CALM      29.90S
MOUNTAIN HOME  CLEAR     62  37  38 NW7       29.91S
$$

IDZ016-017-010700-
SOUTHCENTRAL IDAHO


CITY           SKY/WX    TMP DP  RH WIND       PRES   REMARKS
BURLEY         CLEAR     54  42  64 CALM      29.97S
JEROME         CLEAR     58  34  40 E8        29.98R
TWIN FALLS     CLEAR     62  27  26 S10       29.97S
$$

IDZ019>023-010700-
SOUTHEAST IDAHO


CITY           SKY/WX    TMP DP  RH WIND       PRES   REMARKS
IDAHO FALLS    PTCLDY    60  33  36 SW8       30.01S
POCATELLO      CLEAR     57  35  43 CALM      30.01S
REXBURG        PTCLDY    64  29  26 S9        30.01S
$$

IDZ006-010-011-018-031-032-010700-
CENTRAL IDAHO MOUNTAINS


CITY           SKY/WX    TMP DP  RH WIND       PRES   REMARKS
MCCALL         CLEAR     47  39  74 CALM      30.02S
HAILEY         CLEAR     55  36  47 NW6       30.07R
STANLEY          N/A     45  29  53 S5        30.12S
SALMON         PTCLDY    54  41  62 CALM      29.93R
CHALLIS        CLEAR     59  36  42 NW3       30.01R
$$

IDZ002-004-006-007-026-010700-
NORTHERN IDAHO


CITY           SKY/WX    TMP DP  RH WIND       PRES   REMARKS
LEWISTON       PTCLDY    64  43  46 CALM      29.88S
LOWELL           N/A     56  52  86 CALM      29.94R
COEUR D`ALENE  PTCLDY    61  46  59 SE7       29.87S
MULLAN PASS    CLEAR     48  40  73 VRB7      30.01S
$$



USA.gov is the U.S. government's official web portal to all federal, state and local government web resources and services.